Location: Unspecified
(0.0000°N, 0.0000°E)
Time: 20:32:01
(UTC+00:00)

USA 116 - Visible Passes

Search period start: 20 May 2019 00:00
Search period end: 30 May 2019 00:00
Orbit: 405 x 834 km, 97.9° (Epoch: 18 November)

Date Brightness Start Highest point End Pass type
(mag) Time Alt. Az. Time Alt. Az. Time Alt. Az.
23 May 8.0 04:41:11 10° E 04:42:01 10° ENE 04:42:51 10° ENE visible
23 May 6.3 18:21:52 10° NNW 18:24:54 24° WNW 18:27:43 10° SW visible
24 May 7.4 04:51:48 10° ESE 04:54:42 16° ENE 04:57:44 10° NE visible
24 May 6.8 18:35:26 10° NW 18:37:34 15° WNW 18:39:36 10° WSW visible
25 May 7.1 05:03:35 10° SE 05:07:24 23° ENE 05:11:26 10° NNE visible
26 May 6.4 05:15:44 10° SE 05:20:07 33° ENE 05:24:46 10° NNE visible
27 May 5.6 05:28:07 10° SSE 05:32:51 49° ENE 05:37:54 10° N visible
